Location: Newark
(29.9790°N, 31.1340°E)
Time: 07:26:16
(UTC+00:00)

Transit 2A Rocket - Pass Details

Date: 23 January 2020
Orbit: 591 x 911 km, 66.7° (Epoch: 20 February)

Event Time Altitude Azimuth Distance (km) Brightness Sun altitude
Rises 03:48:26 0° 229° (SW) 2,878 - -13.5°
Reaches altitude 10° 03:51:00 10° 241° (WSW) 1,947 - -13.0°
Exits shadow 03:51:03 10° 242° (WSW) 1,929 6.7 -13.0°
Maximum altitude 03:54:41 27° 300° (WNW) 1,153 5.4 -12.2°
Drops below altitude 10° 03:58:21 10° 359° (N) 1,922 6.9 -11.5°
Sets 04:00:52 0° 12° (NNE) 2,834 7.9 -10.9°
